Wind_Speed
17 19 20 20 19 17 14 11 10 8 8 10 10 10 8 6 5 4 2 3 4 4 4 6 6 11 11 11 12 12 13 14 15 16 16 21 22 28 28 26 26 25 25
19 21 21 19 17 15 13 12 10 9 10 10 10 10 10 8 7 5 3 5 7 7 9 9 9 12 10 10 13 14 15 16 16 15 19 17 16 20 22 21 21 20 25
13 12 14 15 15 14 13 11 10 10 11 11 13 10 8 4 2 2 1 4 6 9 15 17 14 15 14 16 16 15 15 15 18 19 20 20 20 21 23 22 20 26 26
18 16 13 13 14 14 14 13 12 12 12 12 14 12 10 9 5 5 7 7 8 10 14 13 15 20 19 23 22 23 24 22 25 24 30 27 26 29 29 25 28 28 32
14 13 14 14 13 12 11 13 14 13 14 16 15 16 16 14 12 14 14 13 15 17 17 17 19 22 28 29 26 24 27 28 30 30 34 35 37 39 35 27 28 32 36
13 14 13 13 14 14 15 15 15 16 17 19 19 20 20 18 17 15 17 19 20 22 24 24 26 30 35 37 28 25 26 30 30 28 39 31 33 37 39 40 40 37 37
14 13 13 13 14 15 18 18 18 19 20 19 20 20 21 22 21 20 22 23 26 28 29 32 35 38 42 50 23 32 30 31 29 29 30 37 38 41 41 39 42 42 41
22 20 18 17 17 18 17 18 20 22 23 24 23 26 27 24 28 29 29 29 29 31 34 39 44 46 48 57 46 41 38 32 33 37 37 33 29 40 47 40 39 37 39
30 27 25 22 20 21 18 18 23 25 25 26 27 29 30 30 33 33 33 33 33 35 39 44 49 53 60 58 61 43 46 34 36 43 37 36 39 43 44 41 49 46 39
35 34 33 31 29 26 25 23 24 26 26 28 29 31 32 33 35 35 35 38 39 42 46 51 56 58 64 72 67 47 48 36 40 45 39 40 44 48 45 44 35 35 39
39 39 39 37 34 31 29 30 31 31 31 32 34 36 37 36 36 35 38 43 45 49 52 56 61 63 64 61 27 14 36 57 53 46 48 54 56 52 44 41 40 47 45
44 43 41 38 39 37 38 38 36 35 37 36 38 39 37 38 38 38 43 49 51 53 57 60 59 59 54 59 62 61 68 63 56 59 57 58 54 50 47 47 46 41 49
41 38 41 42 42 42 40 42 42 42 40 40 42 43 43 44 45 48 50 53 56 58 61 64 66 58 62 59 56 57 65 66 57 67 63 60 46 59 56 53 47 49 50
53 50 47 43 45 46 45 45 44 46 49 49 48 49 49 48 50 54 58 58 59 60 64 66 61 65 69 63 61 65 66 65 71 68 61 56 59 60 51 44 48 52 51
65 66 63 61 60 62 66 67 61 58 52 53 55 55 55 56 58 61 59 60 61 65 67 66 67 66 66 68 69 73 76 71 68 68 59 59 64 58 47 49 52 50 49
63 69 63 60 65 70 73 72 67 66 62 55 55 59 59 58 61 60 61 64 65 67 68 68 65 69 73 75 77 80 78 74 71 70 61 66 54 48 49 51 51 49 51
57 56 56 56 60 63 61 56 55 56 56 54 53 54 57 61 64 64 63 66 69 72 72 73 76 78 78 77 78 76 74 69 68 63 49 45 45 48 49 51 51 51 54
58 56 55 54 55 56 52 51 49 49 51 55 57 59 59 61 63 66 68 70 72 74 74 75 76 75 73 73 73 67 69 67 58 43 43 49 55 51 50 52 52 52 53
53 50 49 45 48 48 46 47 44 43 45 46 49 50 54 57 61 63 65 67 68 69 70 70 67 66 66 64 63 67 64 51 39 42 45 48 49 51 52 54 55 56 57
42 42 40 39 38 39 39 39 41 41 42 45 43 49 50 53 55 57 59 60 60 63 64 62 64 67 55 61 68 53 37 39 39 41 47 51 51 52 54 56 57 56 55
27 26 27 29 31 34 36 34 35 38 39 43 40 43 45 47 50 52 51 53 54 57 60 60 63 46 35 34 30 32 36 39 40 42 46 50 52 54 56 57 56 54 52
18 18 21 26 28 28 30 32 33 35 36 37 39 42 44 45 48 50 53 53 58 57 60 46 40 24 26 27 31 37 38 36 38 40 42 46 49 52 55 54 51 45 42
16 19 21 24 27 28 29 30 30 32 33 35 39 45 38 43 45 47 38 44 40 48 33 26 21 26 27 31 34 34 33 34 36 38 42 46 46 43 44 47 41 36 38
15 15 17 20 23 24 25 26 28 30 33 34 34 36 32 29 32 28 21 21 21 22 23 24 25 27 29 28 29 31 33 35 36 39 39 40 38 36 38 39 39 39 35
9 11 12 15 16 16 14 13 13 13 15 18 19 19 20 20 19 20 21 23 24 24 27 29 28 27 26 27 29 31 33 34 35 34 33 31 30 32 30 30 29 29 31
8 8 8 9 10 10 11 12 13 12 12 14 16 17 18 20 21 23 25 28 28 26 26 27 27 25 27 29 32 33 35 34 33 31 30 29 28 30 31 27 28 26 26
Wind_Direction
222 211 206 186 183 185 191 190 189 174 177 180 194 196 165 159 139 134 98 196 218 253 278 298 322 340 341 336 333 337 343 345 344 349 353 352 353 350 350 346 343 334 330
211 204 195 186 181 188 198 195 192 185 186 192 193 189 162 130 124 120 134 217 236 279 294 295 302 327 316 307 316 324 325 326 327 334 336 340 343 352 331 325 316 312 315
176 188 188 188 188 186 196 205 200 197 191 204 198 197 186 161 173 243 227 277 276 289 286 279 286 312 319 317 308 307 310 304 309 314 328 323 323 326 328 312 306 304 306
161 164 175 187 197 195 198 205 211 206 200 211 214 217 237 252 238 283 303 313 300 317 324 323 292 300 305 312 305 305 301 307 315 318 316 315 320 315 310 309 308 307 307
167 173 179 189 195 200 207 214 219 219 221 223 231 233 234 247 265 279 289 293 297 299 298 300 292 295 293 298 301 306 309 310 318 315 312 308 308 321 325 301 301 306 306
177 180 189 202 204 206 212 219 227 232 231 230 230 235 242 252 263 272 287 292 297 299 298 299 302 297 294 296 276 288 296 298 303 305 321 314 315 325 320 308 300 295 298
205 198 199 215 220 219 222 225 227 232 239 239 244 241 244 250 256 265 271 279 285 287 292 297 302 301 302 295 273 291 287 297 303 313 317 313 301 310 315 310 300 293 293
218 223 219 220 230 233 232 232 235 239 240 239 237 241 245 246 254 262 273 280 282 292 298 296 296 296 288 286 279 280 284 285 294 300 310 315 315 316 314 320 309 292 294
220 226 228 231 240 248 252 253 249 248 251 250 248 247 248 247 256 267 277 283 290 292 290 288 284 285 282 285 281 264 270 277 284 294 293 314 321 315 311 306 307 298 295
226 229 231 235 238 244 253 259 263 259 256 258 254 250 249 247 255 267 275 281 285 287 289 292 296 296 296 297 289 265 263 279 304 295 306 314 316 313 307 305 303 300 302
235 236 237 237 240 242 248 255 260 264 266 265 264 260 254 249 253 268 275 280 283 287 290 293 291 290 293 291 251 253 302 316 327 314 323 321 314 314 298 302 302 303 305
232 237 237 241 241 242 245 249 249 254 260 264 265 265 267 265 265 267 270 275 280 286 286 286 290 296 294 310 309 314 310 321 321 321 318 315 308 318 304 302 301 294 300
243 233 236 240 246 254 254 256 259 259 257 260 263 263 265 264 262 261 264 269 272 277 285 283 295 289 290 298 307 307 307 306 313 316 312 310 301 313 309 299 295 294 289
256 255 247 244 251 255 254 260 262 264 264 264 264 263 259 263 267 269 269 271 276 278 283 285 287 290 296 304 301 300 300 302 309 311 314 309 309 311 306 294 290 288 288
255 255 256 256 257 260 263 268 266 265 264 264 263 264 264 267 269 271 272 273 275 278 280 281 289 290 294 296 299 300 302 307 309 312 308 304 308 306 291 288 290 291 289
255 258 260 258 259 260 260 260 262 262 263 262 261 261 264 268 270 270 272 273 276 279 283 288 290 292 294 296 297 301 303 303 305 308 300 302 303 296 292 288 288 290 290
252 253 253 252 253 254 257 258 260 258 257 258 262 263 263 265 267 271 273 277 280 284 286 289 291 291 292 293 294 295 297 299 302 301 300 297 295 292 290 290 292 291 290
245 246 246 249 251 253 254 255 258 258 258 260 262 264 267 270 272 275 277 276 280 283 282 283 285 287 289 289 291 296 297 296 297 295 298 295 294 295 296 294 292 289 288
250 250 248 248 252 251 251 255 259 263 264 264 266 269 270 271 272 273 272 275 276 279 280 281 283 285 286 291 291 291 296 297 299 298 298 296 296 296 295 294 293 291 290
243 246 249 251 254 254 256 259 263 264 265 267 267 268 268 269 270 271 273 274 276 279 280 283 283 280 279 278 285 292 305 296 299 301 299 299 299 299 298 296 293 293 292
242 242 243 246 250 254 259 260 266 267 268 270 270 269 269 270 270 270 271 272 274 276 276 273 276 289 284 283 293 298 292 296 300 302 303 306 306 304 302 300 297 294 292
236 236 239 246 253 256 259 262 263 265 267 269 273 271 269 271 275 272 272 275 275 268 262 270 264 291 295 296 291 291 296 306 306 310 315 317 316 310 305 304 305 301 295
238 243 250 253 255 257 260 263 266 268 271 276 275 279 280 279 286 278 280 296 281 271 282 310 302 289 287 288 291 296 302 305 306 312 318 324 326 325 323 319 315 303 297
245 250 256 262 266 267 266 268 274 275 282 280 277 275 283 280 275 287 296 300 298 293 287 284 285 288 289 291 295 299 305 304 306 310 317 329 334 329 328 319 311 310 302
257 261 267 272 277 280 278 275 275 270 269 273 277 281 284 289 292 294 298 295 292 293 295 295 291 290 291 293 297 304 305 303 304 309 319 329 327 329 328 331 319 317 311
259 264 259 254 248 252 267 277 280 283 285 286 290 296 299 299 297 296 294 294 294 293 291 290 289 287 292 296 298 299 298 299 303 311 318 319 319 319 329 325 322 320 315
Height
5883 5886 5890 5892 5895 5899 5902 5905 5907 5908 5909 5911 5913 5913 5913 5913 5914 5915 5916 5917 5916 5915 5914 5913 5912 5911 5910 5909 5907 5905 5904 5901 5899 5897 5895 5891 5888 5885 5884 5882 5880 5877 5875
5880 5883 5888 5891 5894 5897 5901 5904 5905 5907 5909 5910 5913 5914 5913 5912 5913 5914 5914 5914 5914 5913 5912 5910 5909 5909 5907 5906 5905 5904 5902 5899 5898 5897 5895 5893 5891 5888 5884 5881 5878 5876 5873
5879 5883 5887 5890 5893 5895 5898 5901 5904 5906 5908 5909 5912 5913 5912 5912 5913 5913 5913 5913 5913 5912 5910 5909 5908 5907 5906 5904 5903 5902 5900 5897 5894 5891 5889 5887 5885 5882 5880 5877 5874 5871 5869
5876 5880 5884 5887 5890 5893 5896 5899 5901 5904 5906 5908 5910 5910 5911 5911 5912 5912 5912 5911 5910 5909 5907 5906 5905 5903 5901 5898 5897 5896 5894 5892 5889 5887 5884 5882 5878 5875 5871 5870 5866 5864 5861
5873 5877 5880 5884 5887 5891 5894 5897 5899 5901 5903 5905 5907 5908 5908 5908 5909 5909 5909 5908 5907 5904 5904 5903 5901 5899 5897 5893 5890 5888 5887 5885 5883 5881 5879 5877 5874 5871 5866 5862 5859 5854 5851
5870 5873 5877 5882 5885 5887 5890 5893 5895 5898 5899 5901 5903 5903 5904 5905 5905 5905 5904 5903 5901 5900 5899 5898 5895 5892 5888 5881 5878 5878 5879 5877 5874 5872 5869 5867 5865 5860 5858 5855 5852 5847 5843
5869 5870 5872 5877 5880 5883 5885 5889 5892 5893 5893 5896 5897 5898 5899 5899 5900 5900 5899 5898 5896 5894 5893 5891 5887 5885 5881 5875 5869 5870 5868 5866 5865 5865 5861 5858 5855 5852 5847 5841 5839 5835 5831
5865 5868 5869 5872 5875 5878 5881 5884 5886 5887 5888 5889 5891 5892 5893 5895 5894 5894 5893 5891 5891 5889 5887 5883 5879 5877 5871 5864 5858 5857 5855 5855 5856 5855 5851 5847 5845 5842 5838 5833 5829 5826 5820
5859 5862 5865 5868 5870 5872 5876 5878 5880 5881 5882 5884 5884 5885 5886 5887 5886 5886 5885 5884 5883 5881 5878 5874 5868 5865 5852 5847 5844 5837 5839 5843 5843 5842 5841 5838 5833 5830 5825 5820 5817 5815 5811
5852 5855 5858 5861 5864 5866 5869 5872 5873 5874 5877 5877 5877 5877 5878 5880 5880 5880 5877 5874 5872 5871 5865 5861 5858 5854 5844 5830 5808 5821 5824 5825 5831 5820 5826 5827 5821 5818 5814 5808 5803 5799 5796
5845 5848 5850 5852 5856 5858 5861 5864 5866 5867 5868 5869 5870 5870 5870 5871 5873 5872 5869 5864 5863 5859 5856 5852 5847 5843 5831 5827 5813 5794 5809 5822 5820 5819 5812 5810 5808 5802 5797 5791 5789 5787 5782
5832 5837 5839 5842 5844 5848 5851 5854 5855 5858 5860 5861 5861 5862 5863 5864 5865 5862 5859 5855 5855 5853 5848 5843 5832 5828 5818 5820 5814 5810 5812 5807 5807 5804 5799 5796 5793 5786 5782 5778 5776 5773 5769
5819 5823 5826 5828 5831 5835 5839 5842 5844 5846 5847 5850 5852 5852 5853 5855 5855 5853 5850 5849 5845 5844 5840 5836 5830 5822 5816 5812 5808 5809 5807 5799 5794 5792 5787 5782 5776 5773 5768 5763 5761 5758 5754
5808 5813 5815 5817 5820 5823 5826 5829 5832 5834 5835 5836 5838 5839 5840 5842 5843 5841 5839 5838 5835 5833 5827 5826 5820 5815 5809 5803 5799 5795 5791 5788 5782 5778 5771 5766 5761 5757 5754 5749 5746 5742 5738
5793 5797 5803 5807 5810 5811 5813 5816 5818 5820 5822 5823 5824 5824 5826 5827 5827 5826 5824 5822 5819 5817 5814 5813 5811 5804 5798 5791 5786 5781 5776 5769 5763 5758 5751 5747 5746 5744 5739 5735 5732 5728 5725
5780 5784 5789 5792 5795 5796 5797 5800 5802 5804 5807 5809 5810 5811 5812 5811 5810 5810 5809 5806 5803 5799 5798 5796 5792 5788 5783 5777 5771 5765 5760 5755 5749 5743 5739 5736 5732 5729 5726 5723 5719 5714 5709
5766 5770 5773 5776 5777 5778 5781 5784 5786 5788 5791 5794 5795 5795 5796 5796 5794 5794 5794 5791 5787 5784 5782 5779 5775 5770 5764 5759 5755 5752 5746 5741 5736 5732 5727 5726 5720 5716 5713 5709 5702 5697 5692
5748 5754 5758 5762 5765 5767 5769 5771 5773 5775 5776 5778 5780 5781 5781 5780 5779 5778 5778 5774 5772 5767 5765 5761 5757 5753 5751 5747 5743 5737 5733 5728 5723 5718 5715 5712 5709 5703 5697 5693 5690 5684 5678
5737 5742 5745 5749 5751 5754 5757 5759 5760 5761 5763 5766 5766 5768 5768 5767 5765 5763 5761 5757 5754 5752 5749 5746 5743 5738 5734 5731 5728 5724 5720 5715 5711 5706 5702 5700 5696 5691 5685 5681 5674 5667 5662
5722 5727 5734 5738 5741 5744 5747 5748 5749 5750 5752 5751 5755 5753 5753 5750 5749 5747 5745 5742 5739 5734 5730 5727 5724 5722 5720 5715 5714 5711 5705 5705 5698 5694 5693 5689 5684 5677 5670 5662 5656 5650 5646
5715 5720 5726 5729 5733 5736 5737 5739 5740 5740 5740 5737 5740 5739 5739 5737 5733 5730 5728 5725 5723 5720 5717 5714 5711 5702 5700 5701 5698 5695 5696 5693 5688 5685 5682 5676 5668 5659 5651 5643 5637 5634 5630
5713 5715 5718 5721 5725 5727 5727 5728 5729 5728 5728 5728 5727 5726 5724 5723 5722 5719 5714 5712 5708 5705 5702 5695 5689 5693 5692 5690 5690 5690 5687 5679 5676 5672 5667 5660 5651 5642 5635 5628 5623 5619 5616
5708 5709 5712 5715 5717 5718 5719 5720 5719 5719 5718 5717 5716 5712 5706 5707 5708 5702 5696 5697 5695 5694 5691 5686 5685 5684 5683 5682 5682 5679 5673 5668 5665 5660 5655 5648 5638 5630 5624 5618 5613 5608 5605
5702 5704 5706 5708 5710 5711 5711 5711 5710 5709 5708 5706 5705 5701 5699 5698 5695 5691 5689 5689 5686 5684 5682 5680 5677 5676 5675 5673 5670 5666 5661 5659 5655 5650 5645 5635 5627 5622 5616 5611 5606 5602 5597
5699 5701 5702 5703 5704 5703 5704 5703 5703 5702 5701 5700 5698 5695 5693 5690 5687 5684 5682 5681 5681 5677 5674 5671 5669 5667 5664 5662 5660 5656 5653 5649 5646 5641 5633 5625 5620 5614 5609 5605 5600 5596 5592
5696 5698 5699 5700 5701 5701 5700 5699 5698 5697 5696 5694 5693 5689 5686 5684 5682 5680 5678 5675 5673 5670 5667 5665 5662 5659 5656 5652 5650 5648 5644 5641 5636 5629 5622 5617 5612 5609 5604 5599 5595 5591 5588